Weather History for El Arish, Egypt

Change the Weather History Date:

Friday, October 4, 2013

  Actual Average Record
Temperature  
Mean Temperature 74 °F -  
Max Temperature 81 °F 82 °F - ()
Min Temperature 66 °F 60 °F - ()
Cooling Degree Days 8    
Growing Degree Days 24 (Base 50)    
Moisture  
Dew Point 56 °F    
Average Humidity 58    
Maximum Humidity 83    
Minimum Humidity 34    
Precipitation  
Precipitation 0.00 in 0.01 in - ()
Sea Level Pressure  
Sea Level Pressure 29.97 in    
Wind  
Wind Speed 5 mph ()    
Max Wind Speed 12 mph    
Max Gust Speed -    
Visibility 6.2 miles    
Events      
T = Trace of Precipitation, MM = Missing Value Source: Averaged Metar Reports

Daily Weather History Graph

Daily Weather History Graph

Search for Another Location

Airport:

Trip Planner

Search our weather history database for the weather conditions in past years. The results will help you decide how hot, cold, wet, or windy it might be!

Date:

Astronomy

Oct. 04, 2013 Rise Set
Actual Time 5:40 AM EET 5:26 PM EET
Civil Twilight 5:15 AM EET 5:50 PM EET
Nautical Twilight 4:47 AM EET 6:18 PM EET
Astronomical Twilight 4:19 AM EET 6:46 PM EET
Moon 4:54 AM EET (10/4) 4:57 PM EET (10/4)
Length of Visible Light 12h 34m
Length of Day
11h 46m
Waning Crescent, 0% of the Moon is Illuminated
Oct 4
Waning Crescent
Oct 5
New
Oct 12
First Quarter
Oct 19
Full
Oct 27
Last Quarter

Hourly Weather History & Observations

Time (EET) Temp. Dew Point Humidity Pressure Visibility Wind Dir Wind Speed Gust Speed Precip Events Conditions
12:00 AM 69.8 °F 60.8 °F 73% 29.98 in - Calm Calm - N/A   Clear
1:00 AM 68.0 °F 59.0 °F 73% 29.95 in - South 2.3 mph - N/A   Clear
2:00 AM 68 °F 61 °F 71% 29.97 in 6 mi South 3.5 mph - -  
2:00 AM 68.0 °F 60.8 °F 78% 29.95 in - South 3.5 mph - N/A   Clear
3:00 AM 68.0 °F 60.8 °F 78% 29.95 in - South 4.6 mph - N/A   Clear
4:00 AM 66.2 °F 60.8 °F 83% 29.95 in - South 4.6 mph - N/A   Clear
5:00 AM 66.2 °F 60.8 °F 83% 29.95 in 6.2 mi South 3.5 mph - N/A   Scattered Clouds
6:00 AM 68.0 °F 62.6 °F 83% 29.98 in 6.2 mi SSW 2.3 mph - N/A   Scattered Clouds
11:00 AM 78.8 °F 57.2 °F 47% 29.98 in 6.2 mi WNW 8.1 mph - N/A   Scattered Clouds
12:00 PM 78.8 °F 57.2 °F 47% 29.98 in 6.2 mi NW 10.4 mph - N/A   Mostly Cloudy
2:00 PM 79 °F 55 °F 34% 29.97 in 6 mi NW 10.4 mph - -   Mostly Cloudy
2:00 PM 78.8 °F 55.4 °F 44% 29.95 in 6.2 mi NW 10.4 mph - N/A   Mostly Cloudy
3:00 PM 78.8 °F 53.6 °F 42% 29.95 in 6.2 mi NNW 11.5 mph - N/A   Scattered Clouds
4:00 PM 77.0 °F 53.6 °F 44% 29.95 in 6.2 mi NW 10.4 mph - N/A   Scattered Clouds
5:00 PM 75.2 °F 53.6 °F 47% 29.98 in 6.2 mi NW 9.2 mph - N/A   Scattered Clouds
6:00 PM 73.4 °F 53.6 °F 50% 29.98 in 6.2 mi NW 8.1 mph - N/A   Scattered Clouds
7:00 PM 73.4 °F 53.6 °F 50% 29.98 in 6.2 mi NW 6.9 mph - N/A   Scattered Clouds
8:00 PM 72 °F 52 °F 39% 30.01 in 6 mi West 6.9 mph - -   Partly Cloudy
8:00 PM 71.6 °F 51.8 °F 50% 29.95 in 6.2 mi West 6.9 mph - N/A   Scattered Clouds
9:00 PM 71.6 °F 51.8 °F 50% 30.01 in 6.2 mi WNW 6.9 mph - N/A   Scattered Clouds
10:00 PM 71.6 °F 51.8 °F 50% 30.01 in 6.2 mi NW 4.6 mph - N/A   Scattered Clouds
11:00 PM 69.8 °F 51.8 °F 53% 29.98 in 6.2 mi West 2.3 mph - N/A   Scattered Clouds